[Iaude] MPEC V47: 2023 VD1 [a=1.81,e=0.49,i=0.4,H=25.2]
    mpec at marsden.cfa.harvard.edu 
    mpec at marsden.cfa.harvard.edu
       
    Sun Nov  5 08:21:11 EST 2023
    
    
  
M.P.E.C. 2023-V47                              Issued 2023 November 5, 13:19 UT
     The Minor Planet Electronic Circulars contain information on unusual
         minor planets, routine data on comets and natural satellites,
         and occasional editorial announcements.  They are published
    on behalf of Division F of the International Astronomical Union by the
          Minor Planet Center, Smithsonian Astrophysical Observatory,
                          Cambridge, MA 02138, U.S.A.
			  
             Prepared using the Tamkin Foundation Computer Network
                              MPC at CFA.HARVARD.EDU
            URL https://www.minorplanetcenter.net/    ISSN 1523-6714
                                    2023 VD1                                    
Observations:
     K23V01D*1C2023 11 03.48587804 13 42.172+28 17 34.01         20.45GVEV047G96
     K23V01D 1C2023 11 03.49105704 13 46.970+28 17 53.99         20.19GVEV047G96
     K23V01D 1C2023 11 03.49623804 13 51.730+28 18 13.43         20.10GVEV047G96
     K23V01D 1C2023 11 03.50143204 13 56.622+28 18 33.62         20.00GVEV047G96
     K23V01D mC2023 11 03.52199804 14 15.830+28 19 50.50         19.94GVEV047I52
     K23V01D mC2023 11 03.52242204 14 16.300+28 19 52.40         20.68GVEV047I52
     K23V01D KC2023 11 03.94066204 21 28.375+28 47 40.99         20.3 GVEV047J95
     K23V01D KC2023 11 03.95126204 21 39.019+28 48 26.35         20.1 GVEV047J95
     K23V01D KC2023 11 03.95849404 21 46.274+28 48 57.35         20.1 GVEV047J95
     K23V01D KC2023 11 04.17253 04 25 22.40 +29 03 36.8          20.2 GVEV047204
     K23V01D KC2023 11 04.18412 04 25 34.47 +29 04 21.5                VEV047204
     K23V01D mC2023 11 04.27744504 27 27.025+29 11 23.32         20.42GVEV047I52
     K23V01D mC2023 11 04.27781104 27 27.346+29 11 25.66         20.26GVEV047I52
     K23V01D mC2023 11 04.27818004 27 27.756+29 11 25.98         20.98GVEV047I52
     K23V01D mC2023 11 04.27854604 27 28.134+29 11 28.54         20.07GVEV047I52
     K23V01D KC2023 11 04.29181404 27 41.15 +29 12 21.0          19.8 GXEV047858
     K23V01D KC2023 11 04.29882904 27 48.46 +29 12 50.8          19.9 GXEV047858
     K23V01D KC2023 11 04.30565304 27 55.57 +29 13 19.6          19.7 GXEV047858
     K23V01D KC2023 11 05.30272304 47 32.13 +30 20 03.5          20.4 GVEV047H21
     K23V01D KC2023 11 05.30845204 47 39.08 +30 20 26.2          20.5 GVEV047H21
     K23V01D KC2023 11 05.31208004 47 43.51 +30 20 40.7          20.6 GVEV047H21
     K23V01D KC2023 11 05.31494204 47 46.98 +30 20 51.7          20.5 GVEV047H21
Observer details:
204 Schiaparelli Observatory.  Observers L. Buzzi, G. Galli.  0.84-m f/3.5
    reflector + CCD.
858 Tebbutt Observatory, Edgewood.  Observer F. B. Zoltowski.  0.51-m f/8.1
    Schmidt-Cassegrain + CCD.
G96 Mt. Lemmon Survey.  Observer J. B. Fazekas.  Measurers E. C. Beshore, D.
    Fay, J. B. Fazekas, D. C. Fuls, A. R. Gibbs, A. D. Grauer, H. Groeller, J.
    K. Hogan, R. A. Kowalski, S. M. Larson, G. J. Leonard, D. Rankin, R. L.
    Seaman, F. C. Shelly, K. W. Wierzchos.  1.5-m reflector + 10K CCD.
H21 Astronomical Research Observatory, Westfield.  Observer R. Holmes.
    Measurers T. Linder, R. Holmes, L. Horn.  0.81-m f/4.0 astrograph + CCD.
I52 Steward Observatory, Mt. Lemmon Station.  Observer D. Rankin.  Measurers
    E. C. Beshore, D. Fay, J. B. Fazekas, D. C. Fuls, A. R. Gibbs, A. D.
    Grauer, H. Groeller, J. K. Hogan, R. A. Kowalski, S. M. Larson, G. J.
    Leonard, D. Rankin, R. L. Seaman, F. C. Shelly, K. W. Wierzchos.  1.0-m
    prime focus + CCD.
J95 Great Shefford.  Observer P. Birtwhistle.  0.41-m f/6.3 Schmidt-Cassegrain
    + CCD.
Orbital elements:
2023 VD1                                                 Earth MOID = 0.0024 AU
Epoch 2023 Sept. 13.0 TT = JDT 2460200.5                Veres                   
M 322.75609              (2000.0)            P               Q                  
n   0.40576914     Peri.  125.96094     -0.03115635     -0.99950549             
a   1.8069663      Node   325.82373     +0.91458415     -0.02679391             
e   0.4867504      Incl.    0.43338     +0.40319364     -0.01645776             
P   2.43           H   25.29          G   0.15           U   8                  
Residuals in seconds of arc
231103 G96  0.3+  0.1-    231103 J95  0.5-  0.3+    231104 858  0.0   0.1+
231103 G96  0.2+  0.2+    231104 204  0.2-  0.3-    231104 858  0.1-  0.1+
231103 G96  0.5-  0.1-    231104 204  0.4-  0.2-    231105 H21  0.1+  0.0
231103 G96  0.2+  0.4+    231104 I52 (0.9+  0.6-)   231105 H21  0.1-  0.0
231103 I52  0.5-  0.4-    231104 I52  0.1+  0.1+    231105 H21  0.1+  0.2+
231103 I52  0.5+  0.1-    231104 I52  0.4+  1.1-    231105 H21  0.1-  0.1-
231103 J95  0.2+  0.1-    231104 I52  0.3+  0.2-
231103 J95  0.2-  0.1+    231104 858  0.1-  0.1-
Ephemeris:
2023 VD1                 a,e,i = 1.81, 0.49, 0                   q = 0.9274
Date    TT    R. A. (2000) Decl.     Delta      r    Elong.  Phase     V
2023 10 06    02 02 24.2 +14 15 08   0.2427  1.2292   158.7    17.2    23.6
...
2023 10 21    02 33 08.6 +18 22 52   0.1377  1.1293   164.9    13.3    22.0
...
2023 10 29    03 12 47.3 +22 59 13   0.09073 1.0803   162.3    16.2    21.1
...
2023 11 04    04 22 24.4 +28 52 47   0.06151 1.0464   151.5    26.9    20.5
2023 11 05    04 41 13.3 +30 00 25   0.05752 1.0411   148.2    30.1    20.5
2023 11 06    05 03 04.2 +31 04 36   0.05391 1.0358   144.4    33.8    20.4
...
2023 11 12    08 11 42.4 +30 10 30   0.04421 1.0062   110.2    67.4    20.9
...
2023 11 20    11 05 38.5 +12 45 17   0.06612 0.9728    74.6   101.6    23.0
...
2023 12 05    12 32 57.6 -00 40 41   0.1402  0.9337    64.4   107.8    24.9
M. P. C. Staff               (C) Copyright 2023 MPC           M.P.E.C. 2023-V47
    
    
More information about the Iaude
mailing list